AEROCUBE 12B (43557 NORAD) Tracking and Keplerian Element Data

This shows tracking and keplerian element data for the satellite.

Feedback or suggestion? Click here.




ElementValue
Catalog43557
NameAEROCUBE 12B
Epoch Orbit1860
Epoch Day319.52939248
Epoch Year2018
RAAN8.2215
Inclination51.6447
Eccentricity0.0008794
Argument of Perigee24.3213
Mean Anonmoly335.818
Mean Motion15.27976347
Decay Rate9.93E-06
L11 43557U 18046D 18319.52939248 .00000993 00000-0 48687-4 0 9995
L22 43557 51.6447 8.2215 0008794 24.3213 335.8180 15.27976347 18608

Live tracking and technical data element details for AEROCUBE 12B (NORAD 43557). AEROCUBE 12B can be tracked NOW for your location showing map with azimuth and elevation plus other details from your city location.

Track the satellite on the map from your city or location and see movement details for azimuth, elevation, latitude, longitude, range, height, and movement on the map or in text.







IsCatalogInMostPopularTable: catalog: 43557, numindb: 40
Update: records affected: 1



GetName: 43557 AEROCUBE 12B

Hit Count: updated at: Sat, 17 Nov 2018 03:09:35 GMT